Weather History for Detroit Metro, MI

Change the Weather History Date:

Saturday, July 6, 2013

  Actual Average Record
Temperature  
Mean Temperature 77 °F 74 °F  
Max Temperature 83 °F 84 °F 100 °F (1977)
Min Temperature 70 °F 64 °F 42 °F (1972)
Degree Days  
Heating Degree Days 0 0  
Month to date heating degree days 0 0  
Since 1 June heating degree days 23 35  
Since 1 July heating degree days 0 0  
Cooling Degree Days 12 9  
Month to date cooling degree days 47 51  
Year to date cooling degree days 320 266  
Since 1 June cooling degree days 217 218  
Growing Degree Days 26 (Base 50)    
Moisture  
Dew Point 69 °F    
Average Humidity 79    
Maximum Humidity 93    
Minimum Humidity 65    
Precipitation  
Precipitation 0.27 in 0.10 in 1.12 in (1975)
Month to date precipitation 1.77 0.61  
Year to date precipitation 22.63 16.67  
Snow  
Snow 0.00 in 0.00 in 0.00 in ()
Month to date snowfall 0.0 0.0  
Since 1 June snowfall 0.0 0.0  
Since 1 July snowfall 0.0 0.0  
Snow Depth 0.00 in    
Sea Level Pressure  
Sea Level Pressure 30.08 in    
Wind  
Wind Speed 5 mph (SSE)    
Max Wind Speed 13 mph    
Max Gust Speed 23 mph    
Visibility 7 miles    
Events Rain    
T = Trace of Precipitation, MM = Missing Value Source: NWS Daily Summary

Daily Weather History Graph

Daily Weather History Graph

Search for Another Location

Airport:

Trip Planner

Search our weather history database for the weather conditions in past years. The results will help you decide how hot, cold, wet, or windy it might be!

Date:

Astronomy

Jul. 06, 2013 Rise Set
Actual Time 6:03 AM EDT 9:12 PM EDT
Civil Twilight 5:29 AM EDT 9:46 PM EDT
Nautical Twilight 4:45 AM EDT 10:30 PM EDT
Astronomical Twilight 3:53 AM EDT 11:22 PM EDT
Moon 4:49 AM EDT (7/6) 7:51 PM EDT (7/6)
Length of Visible Light 16h 16m
Length of Day
15h 08m
Waning Crescent, 2% of the Moon is Illuminated
Jul 6
Waning Crescent
Jul 8
New
Jul 15
First Quarter
Jul 22
Full
Jul 29
Last Quarter

Hourly Weather History & Observations

Time (EDT) Temp. Heat Index Dew Point Humidity Pressure Visibility Wind Dir Wind Speed Gust Speed Precip Events Conditions
12:53 AM 72.0 °F - 69.1 °F 91% 30.11 in 6.0 mi SSE 3.5 mph - N/A   Mostly Cloudy
1:53 AM 72.0 °F - 69.1 °F 91% 30.11 in 6.0 mi Calm Calm - N/A   Mostly Cloudy
2:53 AM 72.0 °F - 69.1 °F 91% 30.11 in 6.0 mi South 4.6 mph - N/A   Overcast
3:53 AM 71.1 °F - 68.0 °F 90% 30.10 in 6.0 mi South 6.9 mph - N/A   Overcast
4:53 AM 71.1 °F - 66.9 °F 87% 30.10 in 6.0 mi South 5.8 mph - N/A   Overcast
5:53 AM 70.0 °F - 66.9 °F 90% 30.11 in 5.0 mi Calm Calm - N/A   Mostly Cloudy
6:53 AM 70.0 °F - 66.9 °F 90% 30.12 in 5.0 mi South 4.6 mph - N/A   Mostly Cloudy
7:53 AM 72.0 °F - 68.0 °F 87% 30.12 in 4.0 mi South 3.5 mph - N/A   Mostly Cloudy
8:53 AM 73.0 °F - 68.0 °F 84% 30.13 in 6.0 mi South 6.9 mph - N/A   Haze
9:53 AM 75.9 °F - 69.1 °F 79% 30.13 in 10.0 mi SSE 4.6 mph - N/A   Overcast
10:53 AM 77.0 °F - 69.1 °F 76% 30.12 in 10.0 mi Variable 3.5 mph - N/A   Overcast
11:53 AM 80.1 °F 82.9 °F 69.1 °F 69% 30.12 in 10.0 mi SE 3.5 mph - N/A   Overcast
12:08 PM 80.6 °F 83.2 °F 68.0 °F 65% 30.12 in 10.0 mi SSE 5.8 mph - N/A   Overcast
12:43 PM 80.6 °F 83.9 °F 69.8 °F 70% 30.12 in 10.0 mi South 6.9 mph - N/A   Overcast
12:53 PM 82.0 °F 85.5 °F 69.1 °F 65% 30.10 in 10.0 mi ESE 9.2 mph - N/A   Overcast
1:53 PM 80.1 °F 82.9 °F 69.1 °F 69% 30.09 in 10.0 mi SE 8.1 mph - N/A   Overcast
2:53 PM 81.0 °F 84.1 °F 69.1 °F 67% 30.06 in 10.0 mi SE 6.9 mph - N/A   Overcast
3:53 PM 80.1 °F 82.9 °F 69.1 °F 69% 30.06 in 10.0 mi SE 9.2 mph - N/A   Overcast
4:53 PM 78.1 °F - 69.1 °F 74% 30.05 in 10.0 mi SE 6.9 mph - N/A   Overcast
5:53 PM 77.0 °F - 68.0 °F 74% 30.04 in 10.0 mi SE 5.8 mph - 0.00 in   Overcast
6:53 PM 75.9 °F - 69.1 °F 79% 30.03 in 6.0 mi ESE 6.9 mph - 0.00 in Rain Light Rain
7:42 PM 73.4 °F - 69.8 °F 88% 30.03 in 3.0 mi South 5.8 mph - 0.08 in Rain Heavy Rain
7:53 PM 73.0 °F - 70.0 °F 90% 30.02 in 3.0 mi SSE 6.9 mph - 0.12 in Rain Rain
8:53 PM 72.0 °F - 69.1 °F 91% 30.01 in 5.0 mi Calm Calm - 0.15 in   Mostly Cloudy
9:53 PM 72.0 °F - 69.1 °F 91% 30.03 in 7.0 mi Calm Calm - 0.00 in   Overcast
10:03 PM 71.6 °F - 69.8 °F 94% 30.04 in 8.0 mi Calm Calm - 0.00 in Rain Light Rain
10:53 PM 73.0 °F - 69.1 °F 87% 30.03 in 7.0 mi Calm Calm - 0.00 in   Overcast
11:08 PM 73.4 °F - 69.8 °F 88% 30.05 in 7.0 mi South 6.9 mph - 0.00 in Rain Light Rain
11:37 PM 71.6 °F - 69.8 °F 94% 30.04 in 7.0 mi Calm Calm - 0.00 in   Overcast
11:53 PM 72.0 °F - 69.1 °F 91% 30.04 in 5.0 mi SSW 3.5 mph - 0.00 in   Overcast